Regional Weather Roundup
Issued by NWS Jackson, KY

Home | Current Version | Previous Version | Graphics & Text | Print | Product List | Glossary On
Versions: 1 2 3 4 5 6 7 8 9 10 11 12 13 14 15 16 17 18 19 20 21 22 23 24 25 26 27 28 29 30 31 32 33 34 35 36 37 38 39 40 41 42 43 44 45 46 47 48 49 50
000
ASUS43 KJKL 171810
RWRJKL

EAST KENTUCKY HOURLY WEATHER ROUNDUP
NATIONAL WEATHER SERVICE JACKSON KY
100 PM EST TUE JAN 17 2017

NOTE: "FAIR" INDICATES FEW OR NO CLOUDS BELOW 12,000 FEET WITH
NO SIGNIFICANT WEATHER AND/OR OBSTRUCTIONS TO VISIBILITY.

* THESE REPORTS ARE NOT UNDER NWS QUALITY CONTROL AND MAY NOT
  REPORT WEATHER SUCH AS PRECIPITATION AND FOG.

KYZ079-080-083-085-087-088-110-112-115-119-120-171900
...EASTERN KENTUCKY...

CITY           SKY/WX    TMP DP  RH WIND       PRES   REMARKS
JACKSON        CLOUDY    62  56  80 MISG      29.98F
6HR MIN TEMP:  56; 6HR MAX TEMP:  62; 6HR PCP:  0.09;

LONDON         CLOUDY    60  56  86 S10       30.00F
6HR MIN TEMP:  57; 6HR MAX TEMP:  62; 6HR PCP:  0.09;

SOMERSET*      CLOUDY    59  59 100 S6        30.01F
MONTICELLO*    LGT RAIN  63  60  90 SW17G26   30.02F
6HR MIN TEMP:  59; 6HR MAX TEMP:  63; 6HR PCP:  0.19;

WILLIAMSBURG*  CLOUDY    61  59  94 SW9G17    30.02F
MIDDLESBORO*   DRIZZLE   60  57  89 SW10G17   30.06F
6HR MIN TEMP:  57; 6HR MAX TEMP:  60; 6HR PCP:  0.20;

HARLAN APT*    CLOUDY    57  54  88 SW5       30.05F
PIKE CO APT*   CLOUDY    61  58  89 SW7G17    29.99F
BIG SANDY APT* CLOUDY    65  57  75 SW14G22   29.97F
6HR MIN TEMP:  56; 6HR MAX TEMP:  65;

MOREHEAD APT*  CLOUDY    64  57  77 SW20G28   29.95F
ASHLAND*       PTSUNNY   64  61  88 SW8G16    29.90F
$$

KYZ035-036-041-042-044-050-067-078-099-171900
...CENTRAL KENTUCKY...

CITY           SKY/WX    TMP DP  RH WIND       PRES   REMARKS
MT STERLING*   CLOUDY    63  59  88 W16       29.95F
FLEMING/MASON* CLOUDY    62  60  93 SW15G21   29.91F
DANVILLE*      CLOUDY    63  59  88 SW15      29.97F
LEXINGTON      CLOUDY    65  58  78 S28G37    29.91F
6HR MIN TEMP:  58; 6HR MAX TEMP:  65; 6HR PCP:  0.31;

FRANKFORT      PTSUNNY   64  54  69 SW16G26   29.92F
6HR MIN TEMP:  60; 6HR MAX TEMP:  65; 6HR PCP: TRACE;

LOUISVILLE     CLOUDY    63  50  62 W18G24    29.94F
6HR MIN TEMP:  61; 6HR MAX TEMP:  65;

LEBANON*       MOCLDY    64  57  77 SW12G23   29.96F
GLASGOW*       PTSUNNY   62  52  69 W16G25    30.01S
BOWLING GREEN  CLOUDY    63  50  62 W17G32    30.02F
6HR MIN TEMP:  63; 6HR MAX TEMP:  65; 6HR PCP:  0.01;

$$

KYZ091>093-OHZ055-061-077-WVZ005-015-034-035-042-171900
...SOUTHERN OHIO/WEST VIRGINIA...

CITY           SKY/WX    TMP DP  RH WIND       PRES   REMARKS
COVINGTON      CLOUDY    58  52  80 W15G24    29.90F
COLUMBUS       PTSUNNY   64  53  67 W20       29.85S
DAYTON         CLOUDY    54  49  83 W15G24    29.88F
WILMINGTON     CLOUDY    56  52  86 W10       29.88S
HUNTINGTON     CLOUDY    64  57  78 SW10G22   29.92F
CHARLESTON     CLOUDY    63  54  72 SW13G22   29.93F
BECKLEY        CLOUDY    56  51  84 SW14G24   30.03F
BLUEFIELD      LGT RAIN  55  49  80 SW15      30.07F
LOGAN CO APT*  CLOUDY    61  55  82 S7G16     29.98F
$$

VAZ002-007-008-TNZ017-027-036-066-071-171900
...SOUTHWEST VIRGINIA/EAST TENNESSEE...

CITY           SKY/WX    TMP DP  RH WIND       PRES   REMARKS
WISE*          RAIN      55  55 100 SW20G30   30.07F
JONESVILLE*    LGT RAIN  57  57 100 CALM      30.09F
ABINGDON*      DRIZZLE   57  55  92 W7        30.10F
BRISTOL        CLOUDY    57  54  89 CALM      30.09F
MORRISTOWN*    MOCLDY    59  59 100 SW8       30.07F
SEVIERVILLE*   CLOUDY    59  57  94 CALM      30.07F
KNOXVILLE      LGT RAIN  62  56  80 SW12      30.07F
LAFOLLETTE*    CLOUDY    59  57  94 CALM      30.08F
OAK RIDGE      LGT RAIN  59  56  89 W3        30.08F
CROSSVILLE     CLOUDY    59  57  93 VRB6      30.07F
NASHVILLE      CLOUDY    63  57  81 W9        30.06S
$$

...KEY TO REMARKS...
VSB - VISIBILITY IN MILES
WCI - WIND CHILL INDEX
HX  - HEAT INDEX

$$



USA.gov is the U.S. government's official web portal to all federal, state and local government web resources and services.